RH
24 38 75 90 87 90 88 89 83 83 84 86 96 98 95 89 89 88 88 94 94 76 85 81 74 76 70 65 61 56 63 93 98 96 94 88 84 85 94 93 82 78 77
23 28 46 77 82 83 91 83 82 86 90 94 91 89 90 92 94 97 91 90 90 89 85 80 70 69 65 59 61 60 62 78 100 99 98 99 94 84 85 97 98 94 82
22 30 32 47 79 80 84 85 78 76 88 94 87 82 87 92 90 81 80 79 77 74 72 72 69 64 64 63 64 64 62 69 90 98 97 94 94 94 92 82 90 93 98
28 34 40 42 58 61 77 79 83 80 78 80 79 86 83 77 70 70 70 68 72 77 80 76 70 67 62 55 53 56 54 56 60 66 72 84 90 89 100 100 99 92 93
33 38 38 49 69 66 73 72 77 87 86 84 82 81 77 69 69 67 71 85 96 96 89 76 57 49 46 44 47 53 56 55 54 49 49 74 82 87 90 86 95 100 99
36 38 43 57 67 58 59 60 60 64 60 58 64 64 57 70 76 95 94 92 86 74 57 46 47 47 44 40 37 34 32 30 32 42 53 55 53 68 89 90 90 88 90
34 39 42 44 44 38 40 38 38 39 36 35 28 52 77 89 97 96 94 91 86 73 59 62 57 46 44 48 40 27 21 19 20 22 27 30 34 54 62 63 81 91 88
34 40 40 40 36 35 34 28 24 22 18 21 37 63 100 99 96 89 96 92 84 76 78 75 64 56 54 51 37 21 18 19 18 17 16 18 20 26 34 62 79 85 96
33 38 38 36 31 28 20 14 13 15 16 19 48 62 91 86 96 93 90 88 85 83 81 73 69 64 59 49 32 24 20 18 15 15 17 18 20 25 33 48 56 77 82
36 35 37 29 22 19 18 15 15 18 22 17 33 50 64 72 89 88 83 82 80 76 73 75 74 70 56 43 36 25 18 14 13 12 11 14 22 31 56 85 95 98 100
40 33 29 24 20 20 23 21 18 20 28 26 26 45 55 72 78 74 82 83 78 75 74 72 72 68 62 54 39 18 9 7 5 4 7 17 32 65 97 99 98 98 98
40 28 29 33 34 32 27 25 24 22 26 29 26 27 28 55 74 74 76 79 77 85 77 71 66 62 57 44 20 13 5 6 4 7 17 30 52 78 99 99 98 99 98
45 34 30 41 46 46 40 33 28 26 26 30 30 30 29 32 42 62 66 73 69 79 82 84 79 74 55 32 19 9 10 19 19 42 57 64 70 80 96 91 92 96 98
60 49 39 42 51 50 47 42 40 36 32 31 30 28 28 27 29 32 29 32 57 73 99 85 75 66 44 25 20 10 23 53 52 60 70 74 77 82 80 86 85 90 89
64 60 49 51 56 54 50 50 49 44 37 34 31 28 26 22 18 15 12 12 17 58 96 75 68 57 37 40 20 18 40 70 74 63 72 75 75 79 82 83 89 96 96
71 68 60 56 65 69 67 58 47 42 34 27 22 18 15 12 9 6 5 5 6 10 50 73 67 53 48 43 22 26 51 68 76 71 77 80 76 75 68 52 96 98 98
75 75 69 68 69 67 61 58 45 32 28 24 21 17 14 12 11 13 8 9 7 8 21 45 46 50 50 32 21 24 50 63 78 87 80 80 79 72 71 52 82 100 89
78 75 74 74 74 70 58 45 38 28 28 22 19 17 13 13 23 19 13 13 12 15 16 32 48 45 47 25 30 31 65 83 86 98 100 93 84 77 55 88 89 92 94
85 83 82 79 74 69 54 46 42 34 26 26 22 31 52 26 22 26 14 18 20 26 29 34 37 42 42 26 29 48 64 72 88 71 100 100 100 86 32 37 100 97 86
88 91 92 88 89 65 60 56 51 42 28 51 46 97 68 24 41 29 19 22 29 30 32 34 37 38 35 21 35 54 55 61 66 68 72 99 94 82 40 46 97 100 77
97 100 100 100 98 79 63 51 49 45 55 69 96 57 32 30 37 25 20 19 22 25 32 33 33 33 10 16 40 55 41 27 18 64 96 100 100 82 46 84 96 100 83
100 100 100 99 98 84 54 46 47 90 97 72 41 27 22 18 19 12 8 10 17 24 32 25 24 12 7 16 38 52 38 30 18 61 99 100 100 90 62 65 100 100 77
100 100 100 99 98 86 46 54 93 97 62 38 28 14 5 4 5 4 3 5 8 14 14 10 6 5 6 11 35 40 43 38 13 61 62 100 100 84 69 54 100 100 100
100 99 98 98 98 96 96 96 96 96 57 45 33 17 10 7 4 4 3 4 4 4 5 4 4 4 5 13 24 27 39 34 13 37 39 98 100 89 68 52 62 36 66
97 98 100 98 97 96 96 96 96 96 87 54 40 26 18 17 14 5 4 4 4 4 4 5 4 4 5 6 13 21 40 51 13 22 35 94 100 91 59 47 33 40 27
98 98 97 96 96 96 95 96 95 96 90 57 44 38 34 22 11 6 5 5 5 5 7 6 5 6 7 6 6 8 8 21 14 16 26 66 100 100 88 56 28 51 26
Wind_Speed
15 15 17 16 15 15 15 16 14 15 13 13 11 12 12 11 12 14 11 11 11 14 13 13 16 13 15 14 15 17 16 14 17 19 20 20 21 22 23 23 23 23 23
12 11 13 15 17 17 18 18 16 18 16 16 16 16 15 14 16 16 16 16 15 14 15 17 20 17 17 19 17 16 17 18 15 15 17 22 23 23 24 25 27 26 26
14 12 12 15 17 17 18 18 18 17 16 15 14 16 14 11 14 14 13 14 14 14 14 14 14 16 16 15 14 14 14 15 17 17 19 19 20 25 27 28 28 27 29
15 15 13 15 15 14 17 18 18 18 18 17 18 14 11 10 11 12 13 13 12 11 10 11 12 13 13 14 13 13 14 16 19 20 22 23 24 24 21 24 31 32 31
17 17 15 17 18 16 17 17 16 17 17 17 15 14 12 12 9 9 8 7 8 8 10 11 11 10 9 8 9 10 11 13 15 18 20 22 26 29 29 28 28 26 30
18 17 16 19 20 18 17 16 16 16 16 16 14 11 11 10 6 5 6 9 9 9 7 7 6 6 7 8 8 11 14 17 19 20 20 22 23 27 29 31 34 34 33
18 18 19 19 19 16 15 15 16 15 14 13 14 18 14 13 11 11 9 10 9 7 6 6 9 12 13 15 15 13 13 14 17 19 22 24 26 26 27 29 33 35 37
19 19 19 19 18 17 16 15 16 16 15 15 19 25 18 18 15 12 9 7 6 5 7 8 10 12 14 16 16 16 15 17 19 22 23 25 27 29 30 30 31 32 29
21 20 19 19 18 17 16 16 17 17 17 19 26 17 15 10 22 12 11 9 6 6 7 9 10 11 12 15 16 15 16 18 19 21 24 25 27 28 29 29 30 30 32
22 22 20 21 19 18 18 17 18 18 18 20 30 23 17 18 17 12 13 11 9 8 7 8 10 12 13 15 17 16 16 18 18 19 20 22 24 26 27 21 17 17 17
21 22 22 22 21 20 18 19 19 20 19 18 23 26 20 20 20 21 19 18 14 10 8 8 9 11 14 17 19 20 20 17 18 21 21 22 24 21 17 15 13 12 13
22 23 23 22 22 22 20 19 19 19 19 19 19 20 20 22 25 21 18 21 14 9 8 9 11 12 14 17 17 20 21 19 17 17 18 20 22 20 16 13 17 16 13
22 23 24 23 23 22 20 20 20 20 19 18 18 18 19 19 21 23 18 21 16 13 9 9 12 12 14 16 17 16 16 17 18 17 16 15 17 16 18 20 22 23 25
20 22 24 24 22 21 20 20 19 19 19 18 17 17 17 17 16 16 17 19 15 13 11 12 12 13 13 15 17 15 13 14 17 18 16 14 16 18 20 20 21 23 26
22 22 23 24 22 22 22 19 18 18 18 17 16 15 14 14 15 15 15 16 16 15 14 10 10 11 13 14 14 12 11 14 18 19 17 17 17 19 19 17 19 19 22
25 24 25 24 23 21 20 20 19 18 16 15 14 13 11 12 12 12 13 14 15 14 13 14 10 8 8 12 8 7 9 13 15 17 14 15 20 19 17 15 17 17 17
26 26 26 23 24 23 22 20 17 15 14 12 12 11 10 10 9 9 10 11 10 10 13 10 8 6 7 8 5 4 6 8 10 12 14 13 16 22 19 17 19 20 18
28 26 26 24 24 24 23 21 19 16 14 12 10 9 10 11 11 13 11 10 10 9 11 11 8 5 6 5 4 4 3 4 6 7 8 12 15 21 21 17 18 18 21
32 31 29 27 25 26 24 21 21 20 15 12 10 12 11 13 12 11 9 9 9 9 10 10 7 6 5 4 3 2 1 1 4 4 4 7 13 16 20 16 21 18 19
33 32 29 26 25 25 23 23 21 19 16 16 19 16 14 16 14 11 10 10 11 10 8 8 8 8 8 6 5 3 1 2 2 2 4 3 6 13 17 15 18 20 18
33 31 30 27 25 24 23 23 21 20 20 19 16 15 18 18 17 14 12 11 11 10 10 9 8 10 7 8 7 5 3 1 1 2 1 1 6 11 15 16 17 19 18
36 34 30 26 25 25 24 21 24 24 18 13 14 18 17 18 17 15 11 10 9 9 11 9 10 10 7 9 9 5 4 2 1 5 5 2 2 7 11 17 15 16 17
36 32 28 28 28 26 27 29 24 18 13 14 15 15 15 14 12 11 11 8 8 8 8 7 8 7 6 7 9 6 4 2 1 8 5 7 2 3 8 13 14 17 18
31 26 25 27 27 28 27 21 17 16 16 14 14 14 12 11 11 9 9 9 9 9 8 8 7 6 5 7 7 5 5 3 2 6 4 10 6 2 7 9 10 15 16
21 23 24 24 24 22 20 19 17 14 13 13 13 12 10 10 10 10 9 8 9 10 10 8 6 5 6 6 6 6 5 5 2 5 5 11 12 4 5 9 11 11 14
24 23 20 19 19 22 22 20 18 16 15 15 13 11 10 9 8 11 9 8 8 8 8 8 7 7 7 7 7 7 5 5 6 5 5 8 10 10 2 4 11 6 13
Wind_Direction
258 252 237 233 233 237 241 237 238 243 235 227 217 214 232 238 235 240 238 229 231 242 246 260 269 265 269 270 271 267 262 264 265 260 259 260 264 266 261 258 256 255 255
259 252 235 228 228 228 233 237 235 237 239 241 242 243 244 237 246 241 242 243 251 256 258 264 270 279 284 283 276 269 265 258 266 273 274 269 263 260 262 263 261 260 257
260 251 240 237 230 230 228 230 230 233 232 240 243 250 253 246 246 246 249 255 259 262 264 266 273 279 283 286 282 276 271 269 262 265 264 268 273 269 264 263 262 262 258
258 255 251 247 241 238 233 234 236 236 235 235 241 239 239 239 229 238 252 259 253 255 265 276 279 282 286 289 291 288 282 274 270 267 263 256 263 268 272 271 267 265 263
249 253 254 249 246 246 247 242 234 232 230 232 230 229 228 224 232 240 230 242 251 269 280 285 283 288 303 308 303 302 303 299 294 288 280 269 267 259 260 266 270 273 265
243 246 245 247 247 248 244 239 234 227 226 222 216 203 182 189 199 207 220 227 245 262 277 290 309 329 341 340 343 337 331 326 321 316 308 298 286 276 271 265 264 264 265
242 239 240 242 248 243 236 231 228 222 215 202 188 165 149 159 173 184 207 242 255 279 298 303 324 330 330 336 336 334 340 339 332 325 320 313 302 294 286 280 273 267 265
240 237 239 244 244 239 234 225 220 213 205 185 171 163 143 151 172 197 200 222 246 268 288 311 319 319 322 324 327 331 339 338 332 328 326 322 316 307 297 287 285 283 285
243 237 234 238 237 237 233 227 221 214 210 186 176 172 157 179 162 163 194 205 225 249 274 293 299 305 310 314 318 322 328 327 326 326 325 323 321 315 304 294 286 280 279
245 241 233 237 234 235 232 226 224 218 214 202 188 195 199 191 180 161 173 196 204 231 258 282 303 310 313 310 313 317 319 316 319 321 319 316 314 313 311 315 313 302 292
247 242 236 237 238 234 233 228 225 221 216 215 204 209 210 192 195 184 178 183 203 216 236 265 284 301 310 322 325 326 324 326 332 332 326 324 322 329 322 320 297 285 285
250 242 242 237 239 235 228 228 225 227 224 221 221 216 215 200 201 196 188 188 207 209 232 264 282 297 314 321 327 329 326 337 341 337 335 332 325 328 315 319 292 280 273
257 250 242 238 236 239 236 231 226 224 226 226 224 224 219 214 215 212 206 192 196 200 217 253 279 297 314 322 325 330 340 345 348 356 351 337 327 317 303 307 305 301 294
263 261 250 241 237 236 234 230 228 226 226 225 225 224 222 220 217 214 213 208 183 187 206 240 270 293 310 319 330 341 353 354 354 3 355 353 334 322 321 320 316 305 298
257 258 255 248 241 235 232 229 228 226 222 221 221 223 222 220 219 217 220 218 214 190 198 217 250 283 309 321 334 352 353 3 360 1 4 0 350 334 327 328 325 319 306
257 257 252 245 240 237 236 227 221 222 223 219 220 223 219 219 220 219 221 223 220 213 191 207 226 258 293 322 327 355 358 7 1 359 12 10 10 360 357 1 355 339 326
251 254 253 247 240 233 227 227 223 219 222 223 222 226 225 219 221 222 217 216 218 208 195 193 223 247 298 312 313 352 360 7 9 9 8 357 0 8 8 13 13 13 7
245 241 249 246 240 231 226 223 220 216 217 223 228 232 240 241 230 224 212 211 206 198 194 201 214 253 284 299 304 335 3 3 19 25 13 2 8 10 9 13 15 16 21
235 232 233 238 238 228 219 214 216 210 208 213 217 226 248 242 236 227 220 216 213 208 196 217 217 241 271 262 266 260 266 50 360 346 43 357 355 12 7 10 24 21 23
232 227 225 227 229 222 214 215 214 207 199 216 220 242 236 234 227 231 227 223 227 226 226 228 233 248 248 231 227 254 66 39 348 315 346 17 15 18 22 21 33 25 31
224 222 221 219 217 212 211 210 211 216 221 224 240 219 230 228 229 224 222 218 224 232 235 227 235 248 229 214 214 221 189 140 321 160 110 122 8 23 30 32 32 29 39
228 228 227 224 218 213 212 219 224 228 238 226 221 224 225 225 226 223 226 218 218 226 237 238 239 226 210 201 203 199 201 158 219 177 180 173 13 29 28 38 28 34 45
232 228 227 225 214 208 213 218 225 225 206 212 215 211 210 207 208 213 203 199 206 218 225 215 213 203 194 197 197 185 186 202 86 169 178 183 179 42 26 39 28 39 41
222 220 229 222 216 209 211 220 212 200 200 206 209 210 206 200 194 188 187 187 195 198 187 183 172 160 160 176 178 180 186 200 78 155 151 172 174 104 29 30 41 36 41
224 230 225 219 215 216 213 209 207 202 202 206 203 197 197 198 198 182 172 168 175 175 169 166 159 136 120 123 139 136 169 194 88 132 159 177 176 148 42 35 33 40 34
232 223 215 214 214 210 204 204 207 216 214 212 211 216 216 200 186 178 167 168 179 170 150 146 141 126 113 100 98 104 113 192 186 115 133 159 184 200 240 12 28 60 39